Regional Weather Roundup
Issued by NWS Northern Indiana

Home | Current Version | Previous Version | Graphics & Text | Print | Product List | Glossary Off
Versions: 1 2 3 4 5 6 7 8 9 10 11 12 13 14 15 16 17 18 19 20 21 22 23 24 25 26 27 28 29 30 31 32 33 34 35 36 37 38 39 40 41 42 43 44 45 46 47 48 49 50

000
ASUS43 KIWX 120500
RWRIWX

KIWX WEATHER ROUNDUP
NATIONAL WEATHER SERVICE NORTHERN INDIANA
1200 AM EST TUE DEC 12 2017

NOTE: "FAIR" INDICATES FEW OR NO CLOUDS BELOW 12,000 FEET WITH NO
SIGNIFICANT WEATHER AND/OR OBSTRUCTIONS TO VISIBILITY.

* THESE STATIONS ARE NOT UNDER NWS QUALITY CONTROL. THEY ALSO MAY NOT
  REPORT WEATHER SUCH AS PRECIPITATION OR FOG.

INZ001>027-120600-
NORTHERN INDIANA

CITY           SKY/WX    TMP DP  RH WIND       PRES   REMARKS
MICHIGAN CITY* CLOUDY    32  28  86 NW15G26   29.83R WCI  22
LAPORTE*       CLOUDY    33  29  86 NW20G30   29.81R WCI  21
KNOX*          CLOUDY    34  32  93 N24G32    29.79R WCI  21
SOUTH BEND     CLOUDY    33  30  88 NW21G37   29.78R WCI  21
GOSHEN         CLOUDY    33  31  92 NW16G24   29.74R FOG     WCI  23
MONTICELLO*    CLOUDY    33  30  88 NW20G26   29.82R WCI  21
ROCHESTER*     CLOUDY    34  32  93 NW14G22   29.77R FOG     WCI  24
WARSAW*        CLOUDY    32  32 100 NW13      29.74R FOG     WCI  22
AUBURN*        MOCLDY    32  30  93 NW10G16   29.70R FOG     WCI  24
FORT WAYNE     FLURRIES  32  29  88 NW10      29.71R WCI  24
PERU/GRISSOM   LGT RAIN  32  32  98 NW15      29.77R WCI  22

$$
INZ028>050-120600-
CENTRAL INDIANA

CITY           SKY/WX    TMP DP  RH WIND       PRES   REMARKS
LAFAYETTE      CLOUDY    34  30  85 NW17G26   29.84R WCI  23
KOKOMO*        FLURRIES  33  29  85 NW15      29.78R WCI  23
MUNCIE*        MOCLDY    35  27  72 NW15      29.72R WCI  25
INDIANAPOLIS   CLOUDY    36  27  69 NW18G25   29.80R

$$
MIZ043>046-050>051-056>058-064>065-071>073-077>080-120600-
SOUTHWEST LOWER MICHIGAN

CITY           SKY/WX    TMP DP  RH WIND       PRES   REMARKS
BATTLE CREEK   CLOUDY    31  29  92 NW15      29.70R FOG     WCI  20
BENTON HARBOR  CLOUDY    34  27  75 NW13G23   29.79R WCI  25
COLDWATER*     CLOUDY    31  30  99 NW9       29.68S FOG     WCI  22
HILLSDALE*     CLOUDY    30  28  93 NW12      29.65R FOG     WCI  21
HOLLAND        CLOUDY    32  26  78 N13G23    29.77R WCI  22
GRAND RAPIDS   FRZ DRZL  30  28  92 NW14      29.73R FOG     WCI  19
KALAMAZOO      FRZ RAIN  32  29  88 N21       29.72R FOG     WCI  20
STURGIS*       CLOUDY    31  30  98 NW8       29.70R FOG     WCI  23
THREE RIVERS*  CLOUDY    33  32  95 NW12G20   29.72R FOG     WCI  25

$$
OHZ001>008-015>018-024>025-120600-
NORTHWEST OHIO

CITY           SKY/WX    TMP DP  RH WIND       PRES   REMARKS
DEFIANCE       LGT SNOW  30  26  85 NW6       29.68R FOG     WCI  24
FINDLAY        MOCLDY    32  25  75 N8        29.62R WCI  25
TOLEDO EXPRESS LGT SNOW  30  28  92 NW3       29.66S FOG
TOLEDO METCALF CLOUDY    32  27  81 NW3       29.66S
LIMA           PTCLDY    33  28  81 NW10      29.63R WCI  25

$$
AND FOR LAKE MICHIGAN COASTAL AND OPEN LAKE BUOY OBSERVATIONS

STATION/POSITION TEMP    WIND        PRES    VSBY  WAVE
                 AIR SEA DIR/SP/G                  HT/PER
                 (F)     (DEG/KT/KT) (MB)    (MI)  (FT/S)
CALUMET HARBOR    32     310/ 11/ 19 1010.8R
MICHIGAN CITY     34     330/ 33/ 39   N/A
BURNS HARBOR      35     340/ 25/ 31 1010.8R
SAINT JOSEPH      35     350/ 24/ 30 1009.1

$$
&&




USA.gov is the U.S. government's official web portal to all federal, state and local government web resources and services.